AFR75R GMAD-GMMN

Flight info

Callsign AFR75R
Flight time 0h 45m
Altitude 28000
Route MOGBA UH400 MAK UR722 FOBAC
Aircraft A20N/M-SDE2E3FGHIRWXY/LB1

Departure

Time 2026-05-07 19:37
Airport Al Massira Airport (GMAD)

Arrival

Time 2026-05-07 20:22
Airport Mohammed V International Airport (GMMN)
Time Latitude Longitude Altitude Speed Heading
2026-05-07 18:55 30.32890 -9.41099 235 ft 0 kts
2026-05-07 19:15 30.32896 -9.41099 234 ft 1 kts
2026-05-07 19:15 30.32903 -9.41099 234 ft 0 kts
2026-05-07 19:22 30.32906 -9.41099 233 ft 0 kts
2026-05-07 19:22 30.32911 -9.41099 233 ft 0 kts
2026-05-07 19:23 30.32894 -9.41099 233 ft 3 kts
2026-05-07 19:24 30.32869 -9.41102 233 ft 3 kts 24°
2026-05-07 19:24 30.32854 -9.41123 233 ft 3 kts 78°
2026-05-07 19:24 30.32853 -9.41134 233 ft 0 kts 94°
2026-05-07 19:29 30.32853 -9.41133 233 ft 0 kts 94°
2026-05-07 19:30 30.32847 -9.41098 233 ft 7 kts 105°
2026-05-07 19:30 30.32826 -9.41044 234 ft 7 kts 115°
2026-05-07 19:30 30.32811 -9.40985 235 ft 7 kts 102°
2026-05-07 19:30 30.32804 -9.40919 236 ft 8 kts 93°
2026-05-07 19:31 30.32803 -9.40846 237 ft 9 kts 90°
2026-05-07 19:31 30.32803 -9.40766 238 ft 10 kts 90°
2026-05-07 19:31 30.32784 -9.40686 239 ft 10 kts 134°
2026-05-07 19:31 30.32715 -9.40669 240 ft 10 kts 182°
2026-05-07 19:32 30.32640 -9.40672 240 ft 11 kts 183°
2026-05-07 19:32 30.32559 -9.40676 240 ft 11 kts 177°
2026-05-07 19:32 30.32477 -9.40667 241 ft 12 kts 160°
2026-05-07 19:32 30.32438 -9.40591 242 ft 11 kts 93°
2026-05-07 19:33 30.32434 -9.40497 244 ft 11 kts 91°
2026-05-07 19:33 30.32433 -9.40406 245 ft 11 kts 91°
2026-05-07 19:33 30.32432 -9.40316 247 ft 11 kts 92°
2026-05-07 19:33 30.32429 -9.40227 248 ft 11 kts 93°
2026-05-07 19:34 30.32426 -9.40138 250 ft 11 kts 93°
2026-05-07 19:34 30.32422 -9.40050 252 ft 10 kts 90°
2026-05-07 19:34 30.32422 -9.39962 253 ft 10 kts 91°
2026-05-07 19:34 30.32420 -9.39873 255 ft 11 kts 91°
2026-05-07 19:35 30.32418 -9.39785 256 ft 11 kts 92°
2026-05-07 19:35 30.32414 -9.39696 258 ft 11 kts 93°
2026-05-07 19:35 30.32409 -9.39607 259 ft 11 kts 94°
2026-05-07 19:35 30.32394 -9.39520 260 ft 11 kts 129°
2026-05-07 19:36 30.32321 -9.39503 261 ft 11 kts 181°
2026-05-07 19:36 30.32241 -9.39518 261 ft 12 kts 217°
2026-05-07 19:36 30.32225 -9.39620 260 ft 17 kts 271°
2026-05-07 19:36 30.32234 -9.40076 253 ft 98 kts 272°
2026-05-07 19:37 30.32258 -9.41140 258 ft 162 kts 267°
2026-05-07 19:37 30.32268 -9.42432 1012 ft 163 kts 271°
2026-05-07 19:37 30.32298 -9.43704 1869 ft 162 kts 273°
2026-05-07 19:37 30.32307 -9.45030 2609 ft 173 kts 272°
2026-05-07 19:38 30.32303 -9.46463 3255 ft 190 kts 272°
2026-05-07 19:38 30.32290 -9.48057 3933 ft 208 kts 272°
2026-05-07 19:38 30.32052 -9.49761 4603 ft 231 kts 248°
2026-05-07 19:38 30.30983 -9.51284 5310 ft 255 kts 223°
2026-05-07 19:39 30.29670 -9.52657 6397 ft 260 kts 224°
2026-05-07 19:39 30.28377 -9.54057 7455 ft 259 kts 226°
2026-05-07 19:39 30.27315 -9.55763 8083 ft 271 kts 249°
2026-05-07 19:39 30.26804 -9.57868 8909 ft 277 kts 257°
2026-05-07 19:40 30.26402 -9.60071 9791 ft 281 kts 257°
2026-05-07 19:40 30.25972 -9.62250 10602 ft 285 kts 255°
2026-05-07 19:40 30.25479 -9.64529 11122 ft 302 kts 255°
2026-05-07 19:40 30.24929 -9.66954 11544 ft 319 kts 253°
2026-05-07 19:41 30.24442 -9.69489 12191 ft 330 kts 261°
2026-05-07 19:41 30.24495 -9.72116 13049 ft 336 kts 278°
2026-05-07 19:41 30.25393 -9.74607 13878 ft 346 kts 299°
2026-05-07 19:41 30.27105 -9.76626 14674 ft 359 kts 320°
2026-05-07 19:42 30.29408 -9.77857 15404 ft 375 kts 340°
2026-05-07 19:42 30.32017 -9.78140 16080 ft 389 kts 357°
2026-05-07 19:42 30.34728 -9.77994 16675 ft 393 kts 356°
2026-05-07 19:42 30.37503 -9.77866 17301 ft 402 kts 360°
2026-05-07 19:43 30.40317 -9.77499 17944 ft 408 kts
2026-05-07 19:43 30.43127 -9.77121 18570 ft 411 kts
2026-05-07 19:43 30.45990 -9.76800 19151 ft 415 kts 359°
2026-05-07 19:43 30.48862 -9.76527 19816 ft 418 kts 358°
2026-05-07 19:44 30.51790 -9.76275 20439 ft 422 kts 358°
2026-05-07 19:44 30.54734 -9.75750 20965 ft 436 kts 13°
2026-05-07 19:44 30.57461 -9.74215 21547 ft 447 kts 28°
2026-05-07 19:44 30.60070 -9.72193 22154 ft 451 kts 32°
2026-05-07 19:45 30.62649 -9.70091 22785 ft 454 kts 32°
2026-05-07 19:45 30.65221 -9.68027 23440 ft 455 kts 31°
2026-05-07 19:45 30.67858 -9.65967 24235 ft 451 kts 30°
2026-05-07 19:45 30.70448 -9.63984 24992 ft 449 kts 29°
2026-05-07 19:46 30.73058 -9.62012 25723 ft 447 kts 28°
2026-05-07 19:46 30.75656 -9.60063 26395 ft 446 kts 28°
2026-05-07 19:46 30.78283 -9.58101 26988 ft 448 kts 28°
2026-05-07 19:46 30.80906 -9.56143 27540 ft 449 kts 28°
2026-05-07 19:47 30.83547 -9.54172 27892 ft 453 kts 28°
2026-05-07 19:47 30.86210 -9.52183 27963 ft 453 kts 28°
2026-05-07 19:47 30.88862 -9.50203 27971 ft 454 kts 28°
2026-05-07 19:47 30.91511 -9.48222 27976 ft 454 kts 28°
2026-05-07 19:48 30.94167 -9.46239 27980 ft 455 kts 28°
2026-05-07 19:48 30.96813 -9.44259 27984 ft 455 kts 28°
2026-05-07 19:48 30.99495 -9.42247 27986 ft 455 kts 28°
2026-05-07 19:48 31.02157 -9.40252 27984 ft 457 kts 28°
2026-05-07 19:49 31.04833 -9.38244 27986 ft 457 kts 28°
2026-05-07 19:49 31.07518 -9.36227 27990 ft 457 kts 28°
2026-05-07 19:49 31.10165 -9.34236 27986 ft 457 kts 29°
2026-05-07 19:49 31.12863 -9.32200 27986 ft 457 kts 29°
2026-05-07 19:50 31.15533 -9.30184 27987 ft 457 kts 29°
2026-05-07 19:50 31.18179 -9.28190 27984 ft 457 kts 29°
2026-05-07 19:50 31.20866 -9.26164 27982 ft 453 kts 28°
2026-05-07 19:50 31.23470 -9.24195 27980 ft 437 kts 29°
2026-05-07 19:51 31.25978 -9.22298 27978 ft 421 kts 29°
2026-05-07 19:51 31.28373 -9.20484 27973 ft 406 kts 28°
2026-05-07 19:51 31.30700 -9.18719 27969 ft 392 kts 28°
2026-05-07 19:51 31.32984 -9.16994 27974 ft 388 kts 28°
2026-05-07 19:52 31.35260 -9.15276 27978 ft 388 kts 28°
2026-05-07 19:52 31.37513 -9.13575 27974 ft 387 kts 28°
2026-05-07 19:52 31.39764 -9.11875 27971 ft 387 kts 28°
2026-05-07 19:52 31.42023 -9.10166 27972 ft 387 kts 28°
2026-05-07 19:53 31.44292 -9.08448 27973 ft 386 kts 28°
2026-05-07 19:53 31.46543 -9.06743 27971 ft 386 kts 28°
2026-05-07 19:53 31.48801 -9.05027 27969 ft 386 kts 28°
2026-05-07 19:53 31.51050 -9.03321 27967 ft 387 kts 28°
2026-05-07 19:54 31.53307 -9.01609 27960 ft 387 kts 28°
2026-05-07 19:54 31.55555 -8.99900 27960 ft 387 kts 28°
2026-05-07 19:54 31.57811 -8.98184 27963 ft 387 kts 28°
2026-05-07 19:54 31.60072 -8.96464 27961 ft 387 kts 29°
2026-05-07 19:55 31.62323 -8.94745 27959 ft 386 kts 28°
2026-05-07 19:55 31.64588 -8.93017 27958 ft 385 kts 28°
2026-05-07 19:55 31.66838 -8.91302 27955 ft 386 kts 28°
2026-05-07 19:55 31.69088 -8.89590 27956 ft 388 kts 28°
2026-05-07 19:56 31.71331 -8.87875 27956 ft 387 kts 28°
2026-05-07 19:56 31.73609 -8.86134 27956 ft 386 kts 28°
2026-05-07 19:56 31.75858 -8.84413 27953 ft 386 kts 28°
2026-05-07 19:56 31.78103 -8.82697 27952 ft 386 kts 28°
2026-05-07 19:57 31.80343 -8.80983 27953 ft 386 kts 28°
2026-05-07 19:57 31.82615 -8.79246 27954 ft 387 kts 28°
2026-05-07 19:57 31.84859 -8.77529 27953 ft 387 kts 28°
2026-05-07 19:57 31.87095 -8.75811 27953 ft 387 kts 28°
2026-05-07 19:58 31.89348 -8.74084 27956 ft 387 kts 28°
2026-05-07 19:58 31.91623 -8.72337 27954 ft 387 kts 28°
2026-05-07 19:58 31.93883 -8.70605 27954 ft 387 kts 28°
2026-05-07 19:58 31.96110 -8.68892 27952 ft 386 kts 28°
2026-05-07 19:59 31.98363 -8.67160 27956 ft 387 kts 28°
2026-05-07 19:59 32.00642 -8.65408 27953 ft 386 kts 28°
2026-05-07 19:59 32.02877 -8.63687 27821 ft 382 kts 28°
2026-05-07 19:59 32.05076 -8.61993 27437 ft 381 kts 29°
2026-05-07 20:00 32.07309 -8.60271 27019 ft 381 kts 29°
2026-05-07 20:00 32.09506 -8.58579 26637 ft 379 kts 28°
2026-05-07 20:00 32.11718 -8.56874 26255 ft 377 kts 28°
2026-05-07 20:00 32.13920 -8.55188 25869 ft 376 kts 29°
2026-05-07 20:01 32.16089 -8.53519 25488 ft 374 kts 29°
2026-05-07 20:01 32.18259 -8.51845 25131 ft 371 kts 29°
2026-05-07 20:01 32.20414 -8.50182 24771 ft 369 kts 29°
2026-05-07 20:01 32.22545 -8.48535 24410 ft 367 kts 29°
2026-05-07 20:02 32.24670 -8.46891 24045 ft 365 kts 30°
2026-05-07 20:02 32.26797 -8.45241 23702 ft 363 kts 30°
2026-05-07 20:02 32.28902 -8.43610 23366 ft 360 kts 30°
2026-05-07 20:02 32.30966 -8.42006 23034 ft 357 kts 29°
2026-05-07 20:03 32.33050 -8.40391 22687 ft 355 kts 30°
2026-05-07 20:03 32.35104 -8.38795 22361 ft 352 kts 30°
2026-05-07 20:03 32.37133 -8.37215 22015 ft 351 kts 29°
2026-05-07 20:03 32.39167 -8.35635 21693 ft 348 kts 30°
2026-05-07 20:04 32.41195 -8.34058 21365 ft 345 kts 31°
2026-05-07 20:04 32.43171 -8.32509 21025 ft 343 kts 31°
2026-05-07 20:04 32.45165 -8.30940 20680 ft 341 kts 31°
2026-05-07 20:04 32.47127 -8.29401 20345 ft 339 kts 30°
2026-05-07 20:05 32.49082 -8.27871 20036 ft 336 kts 31°
2026-05-07 20:05 32.50727 -8.26585 19781 ft 333 kts 30°
2026-05-07 20:05 32.52652 -8.25085 19448 ft 330 kts 30°
2026-05-07 20:05 32.54567 -8.23589 19134 ft 328 kts 30°
2026-05-07 20:06 32.56461 -8.22109 18824 ft 325 kts 30°
2026-05-07 20:06 32.58336 -8.20646 18483 ft 324 kts 31°
2026-05-07 20:06 32.60201 -8.19189 18173 ft 322 kts 31°
2026-05-07 20:06 32.62085 -8.17716 17860 ft 320 kts 31°
2026-05-07 20:07 32.63913 -8.16284 17550 ft 317 kts 31°
2026-05-07 20:07 32.65750 -8.14846 17240 ft 316 kts 31°
2026-05-07 20:07 32.67577 -8.13415 16930 ft 313 kts 31°
2026-05-07 20:07 32.69386 -8.11998 16617 ft 311 kts 31°
2026-05-07 20:08 32.71248 -8.10718 16312 ft 307 kts 21°
2026-05-07 20:08 32.73235 -8.09826 16008 ft 301 kts 11°
2026-05-07 20:08 32.75276 -8.09337 15698 ft 297 kts
2026-05-07 20:08 32.77271 -8.08701 15322 ft 303 kts 28°
2026-05-07 20:09 32.78788 -8.07033 15014 ft 297 kts 59°
2026-05-07 20:09 32.79811 -8.04919 14736 ft 294 kts 65°
2026-05-07 20:09 32.80777 -8.02789 14377 ft 295 kts 64°
2026-05-07 20:10 32.82906 -7.98667 13800 ft 292 kts 59°
2026-05-07 20:10 32.84042 -7.96668 13496 ft 289 kts 58°
2026-05-07 20:10 32.85182 -7.94723 13219 ft 287 kts 58°
2026-05-07 20:10 32.86344 -7.92763 12818 ft 291 kts 57°
2026-05-07 20:11 32.87515 -7.90806 12482 ft 291 kts 57°
2026-05-07 20:11 32.88681 -7.88861 12181 ft 289 kts 57°
2026-05-07 20:11 32.89839 -7.86932 11911 ft 286 kts 56°
2026-05-07 20:11 32.90998 -7.85004 11608 ft 285 kts 56°
2026-05-07 20:12 32.92136 -7.83108 11299 ft 284 kts 56°
2026-05-07 20:12 32.93283 -7.81194 11002 ft 282 kts 56°
2026-05-07 20:12 32.94412 -7.79314 10721 ft 280 kts 56°
2026-05-07 20:12 32.95536 -7.77439 10442 ft 277 kts 56°
2026-05-07 20:13 32.96650 -7.75581 10151 ft 275 kts 56°
2026-05-07 20:13 32.97757 -7.73732 9849 ft 274 kts 56°
2026-05-07 20:13 32.98854 -7.71901 9558 ft 272 kts 56°
2026-05-07 20:13 32.99955 -7.70058 9281 ft 270 kts 56°
2026-05-07 20:14 33.01037 -7.68249 9011 ft 267 kts 56°
2026-05-07 20:14 33.02109 -7.66458 8725 ft 265 kts 56°
2026-05-07 20:14 33.03165 -7.64689 8390 ft 261 kts 56°
2026-05-07 20:14 33.04212 -7.62934 7764 ft 265 kts 56°
2026-05-07 20:15 33.05286 -7.61133 7139 ft 265 kts 56°
2026-05-07 20:15 33.06333 -7.59379 6642 ft 260 kts 56°
2026-05-07 20:15 33.07370 -7.57639 6118 ft 256 kts 55°
2026-05-07 20:15 33.08398 -7.55909 5578 ft 252 kts 55°
2026-05-07 20:16 33.09394 -7.54228 5070 ft 247 kts 54°
2026-05-07 20:16 33.10395 -7.52575 4570 ft 241 kts 48°
2026-05-07 20:16 33.11700 -7.51439 4117 ft 230 kts 15°
2026-05-07 20:16 33.13251 -7.51295 4005 ft 225 kts 353°
2026-05-07 20:17 33.14757 -7.51658 3989 ft 213 kts 345°
2026-05-07 20:17 33.16139 -7.52126 3974 ft 200 kts 344°
2026-05-07 20:17 33.17445 -7.52592 3978 ft 194 kts 344°
2026-05-07 20:17 33.18731 -7.53046 3887 ft 194 kts 344°
2026-05-07 20:18 33.20010 -7.53489 3755 ft 183 kts 344°
2026-05-07 20:18 33.21183 -7.53892 3481 ft 171 kts 345°
2026-05-07 20:18 33.22283 -7.54268 3255 ft 157 kts 345°
2026-05-07 20:18 33.23296 -7.54614 3023 ft 144 kts 345°
2026-05-07 20:19 33.24208 -7.54926 2807 ft 132 kts 346°
2026-05-07 20:19 33.25090 -7.55226 2638 ft 131 kts 345°
2026-05-07 20:19 33.25966 -7.55524 2474 ft 130 kts 345°
2026-05-07 20:19 33.26837 -7.55822 2312 ft 130 kts 346°
2026-05-07 20:20 33.27712 -7.56120 2149 ft 130 kts 346°
2026-05-07 20:20 33.28582 -7.56418 1984 ft 129 kts 345°
2026-05-07 20:20 33.29445 -7.56714 1815 ft 129 kts 346°
2026-05-07 20:20 33.30312 -7.57010 1641 ft 129 kts 345°
2026-05-07 20:21 33.31177 -7.57307 1465 ft 128 kts 346°
2026-05-07 20:21 33.32898 -7.57898 1119 ft 128 kts 346°
2026-05-07 20:21 33.33466 -7.58088 993 ft 127 kts 346°
2026-05-07 20:22 33.34325 -7.58373 812 ft 131 kts 346°
2026-05-07 20:22 33.35448 -7.58767 660 ft 116 kts 345°
2026-05-07 20:22 33.36095 -7.58984 654 ft 72 kts 343°
2026-05-07 20:22 33.36398 -7.59077 651 ft 21 kts 354°
2026-05-07 20:23 33.36549 -7.59069 651 ft 21 kts 14°
2026-05-07 20:23 33.36690 -7.59023 650 ft 20 kts 14°
2026-05-07 20:23 33.36728 -7.59010 650 ft 0 kts 19°
2026-05-07 20:25 33.36753 -7.58993 650 ft 12 kts 43°
2026-05-07 20:25 33.36792 -7.58891 649 ft 14 kts 74°
2026-05-07 20:25 33.36816 -7.58774 649 ft 15 kts 75°
2026-05-07 20:26 33.36847 -7.58650 649 ft 16 kts 72°
2026-05-07 20:26 33.36866 -7.58573 649 ft 0 kts 72°
2026-05-07 20:27 33.36872 -7.58549 649 ft 6 kts 73°
2026-05-07 20:27 33.36887 -7.58489 649 ft 8 kts 73°
2026-05-07 20:28 33.36906 -7.58408 649 ft 10 kts 73°
2026-05-07 20:28 33.36929 -7.58314 649 ft 12 kts 73°
2026-05-07 20:28 33.36979 -7.58235 649 ft 13 kts
2026-05-07 20:28 33.37075 -7.58261 648 ft 14 kts 344°
2026-05-07 20:29 33.37174 -7.58293 648 ft 15 kts 343°
2026-05-07 20:29 33.37279 -7.58331 649 ft 15 kts 343°
2026-05-07 20:29 33.37381 -7.58362 649 ft 10 kts 346°
2026-05-07 20:29 33.37410 -7.58367 649 ft 4 kts
2026-05-07 20:30 33.37438 -7.58343 649 ft 5 kts 55°
2026-05-07 20:30 33.37456 -7.58303 649 ft 0 kts 63°